Change the Weather History Date:

Thursday, June 5, 2014

  Actual Average (KAQP) Record (KAQP)
Temperature  
Mean Temperature 68 °F -  
Max Temperature 75 °F 72 °F 84 °F (2011)
Min Temperature 62 °F 51 °F 44 °F (1998)
Cooling Degree Days 4    
Growing Degree Days 18 (Base 50)    
Moisture  
Dew Point 62 °F    
Average Humidity 83    
Maximum Humidity 94    
Minimum Humidity 64    
Precipitation  
Precipitation 0.76 in - - ()
Sea Level Pressure  
Sea Level Pressure 29.84 in    
Wind  
Wind Speed 8 mph (South)    
Max Wind Speed 18 mph    
Max Gust Speed 24 mph    
Visibility 10 miles    
Events Rain , Thunderstorm    
Averages and records for this station are not official NWS values.
T = Trace of Precipitation, MM = Missing Value Source: NWS Daily Summary

Daily Weather History Graph

Daily Weather History Graph

Search for Another Location

Airport or City:

Trip Planner

Search our weather history database for the weather conditions in past years. The results will help you decide how hot, cold, wet, or windy it might be!

Date:

Astronomy

Jun. 05, 2014 Rise Set
Actual Time 5:39 AM CDT 9:07 PM CDT
Civil Twilight 5:02 AM CDT 9:44 PM CDT
Nautical Twilight 4:14 AM CDT 10:32 PM CDT
Astronomical Twilight 3:12 AM CDT 11:34 PM CDT
Moon 1:11 PM CDT (6/5) 1:22 AM CDT (6/5)
Length of Visible Light 16h 41m
Length of Day
15h 28m
Waxing Crescent, 49% of the Moon is Illuminated
Jun 5
Waxing Crescent
Jun 5
First Quarter
Jun 12
Full
Jun 19
Last Quarter
Jun 27
New

Hourly Weather History & Observations

Time (CDT) Temp. Dew Point Humidity Pressure Visibility Wind Dir Wind Speed Gust Speed Precip Events Conditions
12:14 AM 68.0 °F 55.4 °F 64% 29.87 in 10.0 mi SE 3.5 mph - N/A   Clear
12:34 AM 66.2 °F 55.4 °F 68% 29.87 in 10.0 mi SSE 4.6 mph - N/A   Clear
12:53 AM 68.0 °F 55.4 °F 64% 29.87 in 10.0 mi SSE 5.8 mph - N/A   Clear
1:14 AM 64.4 °F 55.4 °F 73% 29.87 in 10.0 mi South 5.8 mph - N/A   Clear
1:34 AM 64.4 °F 57.2 °F 77% 29.88 in 10.0 mi South 5.8 mph - N/A   Clear
1:53 AM 64.4 °F 55.4 °F 73% 29.88 in 10.0 mi South 5.8 mph - N/A   Clear
2:14 AM 66.2 °F 57.2 °F 73% 29.88 in 10.0 mi South 8.1 mph - N/A   Clear
2:34 AM 66.2 °F 57.2 °F 73% 29.87 in 10.0 mi SSW 8.1 mph - N/A   Clear
2:53 AM 66.2 °F 60.8 °F 83% 29.87 in 10.0 mi South 9.2 mph - N/A   Clear
3:14 AM 68.0 °F 60.8 °F 78% 29.86 in 10.0 mi South 10.4 mph - N/A   Clear
3:33 AM 68.0 °F 60.8 °F 78% 29.85 in 10.0 mi South 8.1 mph - N/A   Clear
3:54 AM 66.2 °F 60.8 °F 83% 29.85 in 10.0 mi South 8.1 mph - N/A   Clear
4:14 AM 66.2 °F 60.8 °F 83% 29.85 in 10.0 mi South 8.1 mph - N/A   Clear
4:33 AM 66.2 °F 60.8 °F 83% 29.84 in 10.0 mi South 6.9 mph - N/A   Clear
4:54 AM 66.2 °F 62.6 °F 88% 29.83 in 10.0 mi South 6.9 mph - N/A   Clear
5:14 AM 66.2 °F 62.6 °F 88% 29.82 in 10.0 mi South 6.9 mph - N/A   Clear
5:33 AM 66.2 °F 62.6 °F 88% 29.82 in 10.0 mi South 9.2 mph - N/A   Clear
5:54 AM 66.2 °F 62.6 °F 88% 29.81 in 10.0 mi South 6.9 mph - N/A   Clear
6:14 AM 66.2 °F 62.6 °F 88% 29.79 in 10.0 mi SSE 5.8 mph - N/A   Clear
6:33 AM 66.2 °F 62.6 °F 88% 29.80 in 10.0 mi South 6.9 mph - N/A   Clear
6:54 AM 66.2 °F 62.6 °F 88% 29.82 in 10.0 mi South 9.2 mph - N/A   Clear
7:14 AM 69.8 °F 64.4 °F 83% 29.83 in 10.0 mi SSW 10.4 mph - N/A Thunderstorm Scattered Clouds
7:33 AM 69.8 °F 62.6 °F 78% 29.83 in 10.0 mi South 10.4 mph - N/A   Scattered Clouds
7:54 AM 69.8 °F 64.4 °F 83% 29.83 in 10.0 mi South 9.2 mph - N/A   Mostly Cloudy
8:14 AM 69.8 °F 64.4 °F 83% 29.82 in 10.0 mi SSW 9.2 mph - N/A Rain Light Rain
8:33 AM 69.8 °F 64.4 °F 83% 29.82 in 7.0 mi SSW 10.4 mph - N/A Rain Light Rain
8:54 AM 68.0 °F 62.6 °F 83% 29.81 in 10.0 mi SSW 11.5 mph - N/A Thunderstorm Scattered Clouds
9:14 AM 66.2 °F 62.6 °F 88% 29.82 in 10.0 mi SSE 12.7 mph - N/A   Scattered Clouds
9:33 AM 66.2 °F 62.6 °F 88% 29.82 in 10.0 mi South 11.5 mph - N/A   Scattered Clouds
9:53 AM 66.2 °F 60.8 °F 83% 29.82 in 10.0 mi South 12.7 mph - N/A   Scattered Clouds
10:14 AM 66.2 °F 62.6 °F 88% 29.82 in 10.0 mi South 13.8 mph - N/A Thunderstorm Mostly Cloudy
10:33 AM 66.2 °F 62.6 °F 88% 29.82 in 10.0 mi South 16.1 mph - N/A   Overcast
10:53 AM 64.4 °F 62.6 °F 94% 29.83 in 7.0 mi South 17.3 mph 24.2 mph 0.02 in Rain Rain
11:13 AM 64.4 °F 60.8 °F 88% 29.84 in 10.0 mi South 18.4 mph 24.2 mph 0.07 in Rain Rain
11:33 AM 62.6 °F 60.8 °F 94% 29.85 in 10.0 mi South 10.4 mph - 0.24 in Rain , Thunderstorm Heavy Thunderstorms and Rain
11:54 AM 62.6 °F 60.8 °F 94% 29.86 in 10.0 mi South 12.7 mph 17.3 mph 0.41 in Rain Light Rain
12:13 PM 64.4 °F 60.8 °F 88% 29.85 in 10.0 mi South 13.8 mph - N/A Rain Light Rain
12:34 PM 66.2 °F 62.6 °F 88% 29.83 in 10.0 mi South 15.0 mph - N/A   Scattered Clouds
12:54 PM 66.2 °F 62.6 °F 88% 29.84 in 10.0 mi South 12.7 mph - N/A   Scattered Clouds
1:13 PM 69.8 °F 64.4 °F 83% 29.83 in 10.0 mi South 15.0 mph - N/A   Scattered Clouds
1:34 PM 69.8 °F 62.6 °F 78% 29.82 in 10.0 mi South 18.4 mph 23.0 mph N/A   Clear
1:54 PM 69.8 °F 64.4 °F 83% 29.83 in 10.0 mi South 17.3 mph 20.7 mph N/A   Scattered Clouds
2:13 PM 71.6 °F 64.4 °F 78% 29.83 in 10.0 mi South 17.3 mph 21.9 mph N/A   Scattered Clouds
2:34 PM 73.4 °F 66.2 °F 78% 29.83 in 10.0 mi South 17.3 mph 20.7 mph N/A   Clear
2:54 PM 71.6 °F 64.4 °F 78% 29.83 in 10.0 mi South 11.5 mph - N/A   Scattered Clouds
3:13 PM 71.6 °F 64.4 °F 78% 29.83 in 10.0 mi SSE 9.2 mph - 0.01 in Rain , Thunderstorm Light Thunderstorms and Rain
3:34 PM 69.8 °F 66.2 °F 88% 29.83 in 7.0 mi SW 11.5 mph - 0.18 in Rain , Thunderstorm Heavy Thunderstorms and Rain
3:54 PM 68.0 °F 60.8 °F 78% 29.82 in 10.0 mi South 13.8 mph - 0.33 in Rain , Thunderstorm Heavy Thunderstorms and Rain
4:13 PM 69.8 °F 66.2 °F 88% 29.81 in 10.0 mi Calm Calm - N/A Rain Light Rain
4:34 PM 73.4 °F 68.0 °F 83% 29.81 in 10.0 mi SSW 9.2 mph - N/A   Light Drizzle
4:54 PM 73.4 °F 68.0 °F 83% 29.81 in 10.0 mi South 12.7 mph - N/A   Clear
5:13 PM 73.4 °F 66.2 °F 78% 29.81 in 10.0 mi SSE 8.1 mph - N/A   Clear
5:34 PM 75.2 °F 68.0 °F 78% 29.81 in 10.0 mi SSE 10.4 mph - N/A   Clear
5:53 PM 73.4 °F 64.4 °F 73% 29.82 in 10.0 mi SSE 10.4 mph - N/A   Clear
6:14 PM 69.8 °F 62.6 °F 78% 29.82 in 10.0 mi SSE 10.4 mph - N/A   Clear
6:34 PM 69.8 °F 60.8 °F 73% 29.82 in 10.0 mi South 9.2 mph - N/A   Clear
6:53 PM 69.8 °F 60.8 °F 73% 29.82 in 10.0 mi SSE 11.5 mph - N/A   Clear
7:14 PM 69.8 °F 60.8 °F 73% 29.82 in 10.0 mi South 9.2 mph - N/A   Clear
7:34 PM 69.8 °F 60.8 °F 73% 29.83 in 10.0 mi South 11.5 mph - N/A   Clear
7:53 PM 69.8 °F 62.6 °F 78% 29.83 in 10.0 mi SSW 6.9 mph - N/A   Clear
8:14 PM 69.8 °F 62.6 °F 78% 29.83 in 10.0 mi SSW 5.8 mph - N/A   Clear
8:33 PM 69.8 °F 62.6 °F 78% 29.83 in 10.0 mi South 4.6 mph - N/A   Clear
8:54 PM 68.0 °F 62.6 °F 83% 29.83 in 10.0 mi South 4.6 mph - N/A   Clear
9:14 PM 68.0 °F 62.6 °F 83% 29.83 in 10.0 mi South 4.6 mph - N/A   Clear
9:33 PM 68.0 °F 64.4 °F 88% 29.84 in 10.0 mi SSW 3.5 mph - N/A   Clear
9:54 PM 66.2 °F 62.6 °F 88% 29.85 in 10.0 mi SSE 3.5 mph - N/A   Clear
10:14 PM 66.2 °F 62.6 °F 88% 29.86 in 7.0 mi South 4.6 mph - N/A   Clear
10:33 PM 64.4 °F 62.6 °F 94% 29.86 in 10.0 mi South 4.6 mph - N/A   Clear
10:54 PM 64.4 °F 62.6 °F 94% 29.87 in 10.0 mi South 4.6 mph - N/A   Clear
11:14 PM 64.4 °F 62.6 °F 94% 29.86 in 10.0 mi South 4.6 mph - N/A   Scattered Clouds
11:33 PM 64.4 °F 62.6 °F 94% 29.87 in 10.0 mi South 3.5 mph - N/A   Scattered Clouds
11:54 PM 64.4 °F 62.6 °F 94% 29.87 in 10.0 mi SSW 4.6 mph - N/A   Scattered Clouds